Вернуться в каталог

STARLINK-5935

АктивенСвязьVLEO
NORAD 56453·PAYLOAD·🇺🇸 United States

Запущен May 10, 2023 с Vandenberg Space Force Base

Loading…

Ближайшие Пролёты (ближайшие 24 часа)

TLE

СвежийSource: CelesTrak SupGP

Эпоха: Sep 14, 2026, 21:27 UTC

1 56453C 23064F   26257.89423611 -.00015251  00000+0 -12781-2 0  2577
2 56453  70.0023  27.5250 0003160 269.2723 107.0361 14.98338339    19

Отслеживайте STARLINK-5935 в реальном времени с AllMySat

Download on the App Store